Location: Helsinki
(60.1699°N, 24.9384°E)
Time: 23:17:55
(UTC+02:00)

A-11 Canister half - Pass Details

Date: 05 November 2020
Orbit: 1516 x 1684 km, 47.2° (Epoch: 26 November)

Event Time Altitude Azimuth Distance (km) Brightness Sun altitude
Rises 21:40:58 0° 257° (WSW) 4,936 12.0 -38.9°
Reaches altitude 10° 21:44:25 10° 250° (WSW) 3,940 11.3 -39.2°
Enters shadow 21:49:36 29° 227° (SW) 2,701 10.2 -39.6°
Maximum altitude 21:53:24 39° 187° (S) 2,325 - -39.9°
Drops below altitude 10° 22:02:11 10° 124° (SE) 3,844 - -40.7°
Sets 22:05:30 0° 117° (ESE) 4,805 - -40.9°
